EHI
3 5 8 9 7 6 6 4 2 1 0 0 0 0 0 0 0 0 0 1 1 2 3 2 1 0 0 0 0 0 0 0 0 0 0 0 0 0 0 0 0 0 0
5 8 10 9 7 6 6 4 3 2 1 0 0 0 0 0 0 0 0 1 2 3 3 2 1 0 0 0 0 0 0 0 0 0 0 0 0 0 0 0 0 0 0
7 10 11 9 8 7 6 4 3 3 2 1 1 1 1 0 0 0 0 1 2 3 3 1 0 0 0 0 0 0 0 0 0 0 0 0 0 0 0 0 0 0 0
6 10 11 9 8 8 7 6 4 3 3 3 2 2 2 1 0 0 0 0 1 2 2 1 0 0 0 0 0 0 1 1 1 1 0 0 0 0 0 0 0 0 1
5 8 9 8 7 7 8 7 5 4 4 4 3 3 3 1 1 0 0 0 0 1 1 0 0 0 0 0 0 1 2 3 3 2 1 0 0 0 0 0 0 1 2
3 6 7 7 7 7 8 8 7 6 6 6 4 3 3 3 2 1 0 0 0 0 0 0 0 0 0 0 0 1 3 4 4 3 2 1 1 0 1 1 1 1 2
4 5 6 7 7 7 8 9 9 8 8 8 6 4 3 3 3 2 1 1 0 0 0 0 0 0 0 0 0 1 1 2 3 4 4 3 2 1 1 2 2 1 1
5 4 5 7 8 8 8 9 9 9 10 10 9 7 4 3 3 3 3 2 1 1 1 1 1 1 1 1 1 1 0 1 3 4 5 4 4 3 3 2 1 1 0
4 3 3 5 8 8 7 7 8 8 9 11 10 8 6 4 3 3 3 3 3 2 2 2 2 3 3 3 3 2 0 1 2 3 4 5 4 4 4 3 2 2 1
1 1 1 4 7 8 7 7 6 7 8 10 10 9 6 4 3 4 3 3 3 3 3 3 3 4 5 6 5 2 1 1 1 1 2 4 4 4 5 4 3 2 2
0 0 0 2 5 7 8 8 7 7 8 9 9 9 8 5 4 4 4 3 3 3 3 3 3 4 5 6 5 3 2 2 1 1 1 3 4 5 5 6 5 3 1
0 0 0 1 4 7 9 9 8 8 8 9 8 9 8 6 4 4 3 3 3 3 3 3 4 4 4 5 6 5 3 2 2 2 2 3 4 4 5 6 6 5 4
1 1 0 1 3 6 9 9 9 9 9 9 7 7 7 7 5 4 3 3 3 4 4 4 5 4 4 5 6 6 5 4 3 4 4 4 4 4 5 6 7 7 7
2 2 1 0 2 6 9 9 9 10 11 10 8 7 7 7 7 6 6 5 5 6 6 6 6 5 5 5 5 6 6 5 3 4 4 3 3 3 4 5 6 6 6
3 2 1 1 3 6 9 9 8 10 12 11 9 7 6 6 7 8 8 8 8 8 8 7 5 4 4 4 4 5 5 5 2 2 2 1 1 1 2 3 3 3 4
2 1 1 2 4 6 7 7 7 10 12 12 10 8 7 7 8 8 8 8 7 7 7 7 6 4 4 4 4 5 5 4 2 1 0 0 0 0 1 1 1 1 2
1 1 2 3 4 4 4 5 7 9 12 13 12 10 9 9 8 8 7 5 4 5 5 6 6 6 6 5 3 4 5 4 2 0 0 0 0 0 1 1 1 1 1
0 1 2 3 4 4 4 5 7 9 13 15 15 13 12 11 10 8 6 3 2 3 4 4 5 5 6 4 2 2 4 3 1 0 0 0 0 0 1 2 2 2 2
1 0 1 3 5 6 6 6 7 9 13 16 15 13 13 13 10 8 7 5 4 3 4 4 4 5 5 3 1 1 2 1 0 0 0 0 0 0 0 1 1 1 2
2 1 1 2 4 5 7 7 7 8 9 11 11 11 12 13 11 9 8 7 6 5 5 5 4 4 5 3 1 1 2 1 0 0 0 0 0 0 0 0 0 0 1
5 4 2 1 2 4 7 8 7 5 5 6 7 7 10 13 13 11 9 8 6 6 6 5 3 2 2 2 1 1 1 1 0 0 0 0 0 0 0 0 0 0 0
8 7 5 2 2 4 6 6 4 3 4 4 5 6 8 11 12 11 10 9 7 5 4 4 3 2 1 1 0 0 0 0 0 0 0 0 0 0 0 0 0 0 0
8 8 7 6 5 4 5 4 3 3 4 5 6 6 7 8 10 10 11 11 9 6 4 3 3 3 3 2 1 1 0 0 0 0 0 0 0 0 0 0 0 0 0
5 6 6 6 5 3 3 3 2 3 4 4 5 6 7 6 7 9 11 11 10 7 5 4 3 4 4 3 3 2 1 1 1 0 0 0 0 0 0 0 0 0 0
5 5 5 4 4 3 2 1 1 1 2 3 4 5 6 5 6 7 7 8 7 5 4 3 3 3 3 3 2 2 2 2 1 0 0 1 2 1 1 0 0 0 0
6 5 4 4 4 3 1 0 0 0 0 1 3 4 6 7 6 5 4 4 3 3 2 2 3 3 2 1 1 1 1 1 1 0 1 2 3 2 2 1 0 0 0
Wind_Speed
6 5 6 5 5 4 4 4 3 2 2 1 1 1 0 0 0 0 1 1 1 2 2 1 1 1 1 1 2 2 2 1 1 2 1 2 2 2 2 2 1 2 1
5 6 6 5 6 6 5 5 4 3 3 2 2 1 1 1 1 0 0 1 1 2 2 2 2 2 1 2 2 2 2 1 1 2 1 1 2 2 2 1 1 1 1
10 8 7 7 6 7 7 6 5 4 3 3 2 2 2 2 1 1 0 1 1 1 1 2 2 2 2 2 2 2 3 2 1 1 2 1 0 1 1 1 1 1 1
9 8 8 8 8 8 7 6 5 4 4 4 3 4 3 2 2 1 1 1 1 1 2 2 2 2 2 2 2 2 2 3 2 0 0 1 2 1 1 1 1 1 1
10 10 10 10 9 7 7 6 5 4 4 4 4 4 3 2 1 0 0 0 1 1 1 2 2 2 2 2 2 2 2 2 2 2 1 1 1 1 1 1 1 1 1
8 8 8 7 6 6 6 6 5 4 4 5 4 5 4 3 2 1 1 1 0 1 1 2 2 2 2 2 2 2 3 2 2 2 2 2 2 2 2 2 1 1 2
7 8 8 8 8 8 8 7 6 6 5 5 5 5 5 4 4 3 2 2 1 1 2 2 2 2 2 2 2 2 2 2 2 2 2 2 2 2 2 2 1 1 1
6 8 9 9 8 8 8 8 8 7 6 6 6 5 4 3 3 3 3 3 2 2 2 2 2 2 2 2 2 2 2 2 2 3 2 2 2 2 3 3 2 1 1
6 6 7 7 8 8 8 9 8 7 6 6 5 5 5 4 4 3 3 2 2 2 2 2 2 2 2 2 3 2 2 2 2 2 2 2 2 2 3 3 3 2 1
5 5 5 6 6 6 6 6 7 7 6 6 5 5 5 5 4 3 3 2 2 2 2 2 2 2 2 2 2 1 1 2 2 2 2 2 2 2 2 3 3 3 3
6 5 4 5 5 5 6 6 6 5 5 5 5 4 4 4 4 3 4 3 2 2 2 2 2 2 2 2 2 2 2 2 2 2 2 3 2 2 2 2 2 2 2
5 5 4 4 4 5 5 6 5 5 5 5 4 4 3 3 4 4 4 3 3 2 2 2 2 2 2 2 2 3 2 2 3 2 2 3 2 2 2 2 2 2 3
4 4 4 5 5 6 6 6 6 6 5 4 4 4 3 3 4 4 3 3 3 2 1 2 2 2 2 2 3 3 3 3 3 3 3 3 2 2 2 2 2 2 2
3 4 3 4 4 5 5 6 6 5 5 5 5 5 5 4 4 3 3 3 3 3 3 3 3 3 3 3 3 3 3 2 2 2 2 2 3 3 2 2 2 1 1
3 4 4 4 4 4 4 4 4 4 5 5 5 5 4 4 3 2 3 2 3 3 2 2 2 2 2 2 2 2 2 2 1 1 1 1 1 2 2 2 2 2 2
3 3 3 4 4 5 5 4 3 3 3 4 4 3 3 3 3 2 2 2 2 2 2 2 2 2 2 2 2 2 2 2 2 1 1 1 1 1 1 2 3 3 3
3 2 3 4 4 4 4 4 4 3 3 3 3 3 3 3 3 3 2 2 3 2 2 2 2 2 2 2 2 2 2 2 2 2 2 1 1 0 0 0 1 2 3
2 2 2 2 2 2 2 3 3 4 3 3 4 3 3 3 3 3 2 2 2 3 2 2 2 2 2 2 2 2 2 1 1 1 2 1 1 1 0 0 1 1 2
2 2 2 2 2 3 3 3 2 3 4 4 4 4 4 4 3 3 3 2 2 2 2 2 2 2 1 1 1 2 1 1 1 1 1 1 1 1 1 1 1 2 2
1 1 1 1 2 2 3 4 3 3 4 4 4 4 4 4 4 3 3 2 2 3 2 1 1 1 1 1 1 2 1 1 1 1 1 1 1 1 1 1 1 2 3
2 2 2 2 1 2 3 3 3 4 4 3 2 2 3 4 3 3 2 2 2 2 1 1 1 1 1 1 1 2 2 2 1 1 1 1 1 1 2 2 3 4 3
2 2 2 2 2 2 3 2 3 3 2 2 2 2 2 3 3 3 2 2 3 2 1 1 0 1 0 1 1 3 3 2 2 2 2 2 2 2 3 2 3 3 2
2 2 2 2 2 1 2 2 1 1 2 2 2 2 2 2 2 3 3 2 2 2 1 1 1 1 0 0 1 2 3 3 2 1 2 3 3 3 2 2 2 2 1
2 2 3 2 1 1 1 1 1 2 3 2 2 2 2 2 1 1 2 2 2 2 2 2 2 1 1 1 0 1 1 1 1 1 1 2 2 1 1 1 1 1 1
1 2 2 1 0 1 1 1 2 2 3 2 1 1 2 2 1 1 1 2 2 3 3 2 2 2 2 3 2 2 1 1 1 0 0 1 1 1 1 1 1 1 1
1 2 1 1 0 1 0 1 2 2 3 2 1 1 1 1 1 1 1 1 1 1 3 3 3 2 3 2 2 2 2 2 3 2 1 1 1 1 2 2 2 2 2
Wind_Direction
201 186 186 183 179 176 171 175 173 181 148 133 135 133 179 238 334 198 180 158 145 144 140 131 114 120 127 136 136 125 115 105 106 90 49 28 32 44 44 48 56 45 36
191 189 188 187 187 185 182 180 184 182 175 167 158 154 150 182 194 309 48 158 161 165 163 153 148 145 133 124 126 122 118 128 114 117 98 24 356 3 14 36 53 29 27
194 194 192 195 191 191 191 191 190 185 180 161 123 98 68 40 40 18 329 265 185 174 171 170 160 155 156 162 163 150 144 152 147 113 130 128 237 331 352 350 7 7 6
198 194 192 194 198 200 194 189 185 181 174 157 151 151 156 181 215 213 233 276 214 202 195 179 172 168 168 174 185 159 155 154 165 149 91 157 158 154 321 327 319 312 318
195 196 197 199 199 194 189 187 179 180 174 166 167 163 172 195 197 160 207 287 296 256 222 187 181 181 184 189 185 164 168 172 174 177 162 130 107 143 178 267 300 311 295
193 195 196 190 190 186 184 180 176 186 181 178 176 177 181 179 167 185 210 249 287 279 250 197 194 194 191 190 187 181 186 195 190 185 177 171 171 181 180 215 255 276 282
188 187 186 187 190 186 185 181 180 193 190 186 188 191 193 186 190 201 208 208 225 241 247 212 200 198 198 189 177 180 201 199 199 204 205 202 201 176 169 175 209 256 284
188 190 190 189 189 188 185 182 186 195 191 193 198 195 194 196 206 205 202 206 216 226 230 213 203 197 191 191 179 183 203 197 209 216 207 204 211 190 183 180 174 212 266
191 191 188 186 186 186 187 187 189 193 195 197 194 194 198 200 205 204 203 209 217 217 205 201 194 194 185 182 173 187 203 200 214 221 217 220 222 209 207 194 186 184 220
197 199 192 189 192 187 183 181 184 194 196 194 196 200 201 202 201 192 204 211 216 211 195 193 195 201 200 191 177 188 199 191 217 211 217 235 232 222 209 202 203 200 198
199 197 197 194 188 178 174 176 180 184 185 191 197 203 202 200 195 201 211 214 216 209 207 203 199 205 213 202 187 209 204 203 222 230 226 243 235 231 225 211 205 203 197
201 195 190 184 180 179 178 176 175 184 193 188 181 192 198 198 202 211 214 206 209 211 207 197 203 214 214 205 201 220 224 211 222 236 238 252 243 243 240 223 219 214 208
191 189 183 181 184 182 180 182 185 190 188 176 178 182 186 197 211 215 208 199 202 208 199 188 204 224 225 222 221 215 222 229 231 228 229 240 227 244 251 238 232 225 215
188 186 190 190 188 187 188 190 194 186 173 174 186 193 199 203 209 209 204 201 196 197 202 203 208 217 218 222 226 218 218 230 241 239 234 232 219 222 224 226 231 211 197
192 194 194 195 192 192 195 195 192 179 172 176 191 205 209 201 193 197 200 194 193 202 198 200 210 217 212 226 222 218 217 210 227 253 261 248 239 209 200 201 205 196 197
210 198 191 194 200 198 198 192 186 176 165 176 193 200 196 190 184 192 194 188 189 193 187 201 210 221 234 245 224 203 197 193 197 221 283 287 256 231 219 216 203 197 197
212 201 201 205 207 199 188 190 187 164 162 178 189 189 187 187 193 194 188 202 204 196 200 207 202 218 247 228 207 197 178 181 199 214 231 270 321 342 321 279 215 230 236
216 216 209 202 203 180 174 179 158 150 165 189 196 195 182 185 184 177 195 218 213 203 209 216 213 215 242 221 205 187 170 176 208 226 225 238 283 308 21 314 310 285 265
197 210 216 203 183 170 164 150 152 156 179 201 209 204 187 182 179 186 203 211 200 201 199 204 197 204 259 248 189 157 150 159 256 277 278 251 259 283 113 128 302 312 312
135 129 130 129 151 167 150 145 165 176 208 216 218 213 190 180 184 193 202 192 191 193 176 177 183 193 240 249 174 155 155 188 273 309 305 264 252 283 171 183 210 265 288
90 101 116 118 131 138 144 156 168 195 213 215 203 196 186 180 181 171 168 163 161 147 140 146 163 182 229 232 191 168 167 198 227 258 277 282 293 277 248 222 226 239 252
88 99 107 92 78 109 134 157 196 207 181 163 163 165 162 170 166 156 153 140 138 140 142 135 345 331 326 239 211 188 194 184 199 241 264 283 302 294 281 262 266 258 244
121 99 103 85 62 86 128 158 230 143 130 129 145 156 139 134 143 150 157 148 147 157 174 182 223 284 307 255 214 201 202 195 199 244 270 296 302 301 295 290 283 254 228
117 99 96 88 61 63 94 114 96 107 117 118 136 143 128 118 118 139 152 152 160 170 181 192 212 226 236 246 199 182 199 209 229 278 308 314 303 285 294 315 276 253 254
122 123 121 135 156 92 87 78 95 117 114 114 152 158 137 140 120 115 164 170 187 186 189 205 207 207 240 252 214 183 196 204 209 165 360 356 351 341 333 319 297 288 288
118 115 129 156 186 117 110 115 135 141 132 137 180 185 165 160 146 125 18 21 198 189 198 204 196 219 234 251 227 206 194 179 155 139 188 272 275 275 280 282 284 273 264